Tracking 25710 objects as of 5-Jul-2022
HD Live streaming from Space Station
objects crossing your sky now

FENGYUN 1C DEB

Track FENGYUN 1C DEB now!
10-day predictions


NORAD ID: 30565
Int'l Code: 1999-025ALF
Perigee: 792.0 km
Apogee: 1,025.8 km
Inclination: 98.5 °
Period: 103.0 minutes
Semi major axis: 7279 km
RCS: 0.0268 m2 (small)
Launch date: May 10, 1999
Source: People's Republic of China (PRC)
Launch site: Taiyaun Space Center, China (TSC)

Note: This is SATELLITE DEBRIS
aabbcc
Your satellite tracking list
Your tracking list is empty




NASA's NSSDC Master Catalog

Two Line Element Set (TLE):
1 30565U 99025ALF 22185.34651569  .00001045  00000-0  68930-3 0  9990
2 30565  98.4887 123.8412 0160617 305.3778 209.9951 13.97707046782927
Source of the keplerian elements: AFSPC